Albany, GA

1:11 PM EDT on May 24, 2017 (GMT -0400)
Southwest Georgia Regional

Weather History for KABY - October, 2014

Change the Weather History Date:

Sunday, October 19, 2014

  Actual Average Record
Temperature  
Mean Temperature 63 °F 67 °F  
Max Temperature 75 °F 80 °F 91 °F (1984)
Min Temperature 51 °F 55 °F 33 °F (1967)
Degree Days  
Heating Degree Days 2 2  
Month to date heating degree days 14 12  
Since 1 July heating degree days 14 13  
Cooling Degree Days 0 4  
Month to date cooling degree days 115 110  
Year to date cooling degree days 2458 2466  
Growing Degree Days 14 (Base 50)    
Moisture  
Dew Point 50 °F    
Average Humidity 61    
Maximum Humidity 86    
Minimum Humidity 36    
Precipitation  
Precipitation 0.00 in 0.09 in 0.82 in (2007)
Month to date precipitation 1.59  
Year to date precipitation 40.63  
Sea Level Pressure  
Sea Level Pressure 30.09 in    
Wind  
Wind Speed 4 mph (NNE)    
Max Wind Speed 13 mph    
Max Gust Speed 17 mph    
Visibility 10 miles    
Events      
T = Trace of Precipitation, MM = Missing Value Source: NWS Daily Summary

Daily Weather History Graph

Daily Weather History Graph

Search for Another Location

Airport or City:

Trip Planner

Search our weather history database for the weather conditions in past years. The results will help you decide how hot, cold, wet, or windy it might be!

Date:

Astronomy

Oct. 19, 2014 Rise Set
Actual Time 7:42 AM EDT 7:00 PM EDT
Civil Twilight 7:18 AM EDT 7:24 PM EDT
Nautical Twilight 6:49 AM EDT 7:53 PM EDT
Astronomical Twilight 6:21 AM EDT 8:21 PM EDT
Moon 3:49 AM EDT (10/19) 4:38 PM EDT (10/19)
Length of Visible Light 12h 06m
Length of Day
11h 17m
Waning Crescent, 17% of the Moon is Illuminated
Oct 19
Waning Crescent
Oct 23
New
Oct 30
First Quarter
Nov 6
Full
Nov 14
Last Quarter

Hourly Weather History & Observations

Time (EDT) Temp. Dew Point Humidity Pressure Visibility Wind Dir Wind Speed Gust Speed Precip Events Conditions
12:53 AM 64.0 °F 52.0 °F 65% 30.02 in 10.0 mi North 5.8 mph - N/A   Clear
1:53 AM 62.1 °F 51.1 °F 67% 30.02 in 10.0 mi North 4.6 mph - N/A   Clear
2:53 AM 60.1 °F 50.0 °F 69% 30.03 in 10.0 mi North 5.8 mph - N/A   Clear
3:53 AM 57.9 °F 50.0 °F 75% 30.04 in 10.0 mi North 3.5 mph - N/A   Clear
4:53 AM 57.0 °F 48.9 °F 74% 30.05 in 10.0 mi Calm Calm - N/A   Clear
5:53 AM 55.0 °F 46.9 °F 74% 30.07 in 10.0 mi North 4.6 mph - N/A   Clear
6:53 AM 55.0 °F 46.0 °F 72% 30.10 in 10.0 mi NNE 5.8 mph - N/A   Clear
7:53 AM 52.0 °F 46.0 °F 80% 30.11 in 10.0 mi North 3.5 mph - N/A   Clear
8:53 AM 55.9 °F 48.0 °F 75% 30.13 in 10.0 mi NNE 5.8 mph - N/A   Clear
9:53 AM 59.0 °F 48.0 °F 67% 30.16 in 10.0 mi NE 11.5 mph - N/A   Clear
10:53 AM 63.0 °F 48.9 °F 60% 30.15 in 10.0 mi NE 8.1 mph - N/A   Clear
11:53 AM 66.9 °F 48.9 °F 52% 30.14 in 10.0 mi East 9.2 mph - N/A   Clear
12:53 PM 70.0 °F 48.9 °F 47% 30.13 in 10.0 mi ESE 9.2 mph - N/A   Clear
1:53 PM 71.1 °F 48.0 °F 44% 30.11 in 10.0 mi Calm Calm - N/A   Clear
2:53 PM 73.0 °F 48.0 °F 41% 30.09 in 10.0 mi Calm Calm - N/A   Clear
3:53 PM 73.9 °F 46.9 °F 38% 30.07 in 10.0 mi Variable 3.5 mph - N/A   Clear
4:53 PM 75.0 °F 46.9 °F 37% 30.07 in 10.0 mi East 3.5 mph - N/A   Clear
5:53 PM 73.9 °F 46.9 °F 38% 30.07 in 10.0 mi ENE 4.6 mph - N/A   Clear
6:53 PM 66.9 °F 54.0 °F 63% 30.08 in 10.0 mi Calm Calm - N/A   Clear
7:53 PM 62.1 °F 54.0 °F 75% 30.09 in 10.0 mi Calm Calm - N/A   Clear
8:53 PM 57.9 °F 54.0 °F 87% 30.10 in 10.0 mi Calm Calm - N/A   Clear
9:53 PM 57.0 °F 53.1 °F 87% 30.11 in 10.0 mi Calm Calm - N/A   Clear
10:53 PM 55.0 °F 52.0 °F 89% 30.12 in 10.0 mi Calm Calm - N/A   Clear
11:53 PM 54.0 °F 52.0 °F 93% 30.12 in 10.0 mi Calm Calm - N/A   Clear